413  
ASUS46 KPDT 210210  
RWRPDT  
PENDLETON REGIONAL WEATHER ROUNDUP  
NATIONAL WEATHER SERVICE PENDLETON OREGON  
600 PM PST MON NOV 20 2017  
 
NOTE: FAIR INDICATES FEW OR NO CLOUDS BELOW 12,000 FEET WITH NO  
SIGNIFICANT WEATHER AND/OR S TO VISIBILITY
.  
 
# INDICATES UNOFFICIAL STATION AND DATA  
 
WAZ520-210310-  
EAST SLOPES OF WASHINGTON CASCADES  
 
CITY SKY/WX TMP DP RH WIND PRES REMARKS
 
#BULLFROG N/A 39 36 89 SW3 N/A  
#CLE ELUM HS N/A 41 33 73 S10 29.83R  
#CLE ELUM LAKE N/A 38 32 79 W1 29.85R  
#EASTON DOT N/A 36 34 92 S10 N/A  
#GLENWOOD N/A 45 37 73 S10 29.91R  
#NELSON 3SW N/A 34 33 96 W6 30.17R  
#NILE N/A 36 34 92 CALM 29.20R  
#TEANAWAY 4NE N/A 37 35 92 CALM N/A  
#TROUT LAKE 1NE N/A 42 37 82 W2 29.95R  
#TROUT LAKE 1E N/A 36 34 92 W2 29.95R  

 
 
WAZ521-210310-  
SIMCOE HIGHLANDS  
 
CITY SKY/WX TMP DP RH WIND PRES REMARKS
 
#BICKLETON HS N/A N/A N/A N/A CALM 29.96R  
#CENTERVILLE 1SWN/A 42 36 79 W2 29.91R  
#GOLDENDALE 4W N/A 45 26 47 W10 29.95R  
#GOODNOE HILLS N/A 45 38 76 E2 N/A  
#LYLE 6NE N/A 46 39 76 CALM 29.94R  
#PITT 4SE N/A 42 37 82 S10 29.96R  

 
 
WAZ026-210310-  
KITTITAS VALLEY  
 
CITY SKY/WX TMP DP RH WIND PRES REMARKS
 
ELLENSBURG AP PTCLDY 44 33 65 NW18 29.89R WCI 36  
#ELLENSBURG CWU N/A 43 35 73 S10 29.87R  
#ELLENSBURG 3NE N/A 41 35 79 CALM 27.96R  
#ELLENSBURG 1E N/A 43 35 73 CALM 29.98R  
#KITTITAS 3S N/A 42 36 79 S12 29.91R WCI 35  
#MANASTASH RDG N/A 39 39 100 S10 N/A  
#RYEGRASS DOT N/A 40 29 64 S10 N/A  

 
 
WAZ027-210310-  
YAKIMA VALLEY  
 
CITY SKY/WX TMP DP RH WIND PRES REMARKS
 
SUNNYSIDE AP MOCLDY 42 36 79 NE5 29.91R  
YAKIMA AIRPORT MOCLDY 49 33 54 W12 29.90R WCI 44  
YAKIMA-VAGABOND CLEAR 45 34 65 CALM 29.89R  
#DONALD 2NE N/A 47 13 25 W2 28.75R  
#GRANDVIEW N/A 46 36 68 CALM 29.85R  
#MABTON N/A 50 37 61 S5 29.91R  
#MOXEE 2E N/A 39 N/A N/A NW3 29.63S  
#NACHES 2SW N/A 43 36 76 SE2 29.84S  
#OUTLOOK DOT N/A 47 37 68 SW3 29.87R  
#PARKER DOT N/A 48 33 56 SW3 29.88R  
#TERRACE HTS N/A 46 34 63 W1 29.88R  
#TOPPENISH N/A 50 37 61 CALM 29.82R  
#I82 S UMTANUM RN/A 45 30 55 E5 N/A  
#UNION GAP DOT N/A 51 30 44 SW3 29.91R  
#W YAKIMA N/A 49 34 56 W6 29.92R  
#WHITE SWAN 5E N/A 48 37 65 S10 29.91R  
#WILEY CITY 3W N/A 46 29 51 W6 29.84R  
#ZILLAH DOT N/A 48 35 60 SW3 N/A  

 
 
WAZ028-210310-  
LOWER COLUMBIA BASIN...WASHINGTON  
 
CITY SKY/WX TMP DP RH WIND PRES REMARKS
 
PASCO PTCLDY 50 38 63 SW9 29.92R  
PROSSER AWOS N/A 45 37 73 CALM 29.95R  
RICHLAND AWOS MOCLDY 52 39 61 W10 29.91R  
#BENTON CITY N/A 45 37 73 CALM 29.82R  
#CONNELL 5N N/A 43 39 86 W6 29.88R  
#CONNELL 5NW N/A 42 38 86 S7 29.84R  
#ELTOPIA 6NW N/A 47 42 83 CALM 28.85R  
#KAHLOTUS N/A 48 42 80 CALM 29.88R  
#KENNEWICK 3S N/A 48 40 74 CALM 29.91R  
#PATERSON N/A 50 43 77 CALM 29.89R  
#PROSSER DOT N/A 47 37 68 SW3 29.91R  
#SAGEMOOR 2W N/A 47 39 74 MISG 29.76R  
#TOUCHET 2S N/A 51 42 71 S7 29.89R  
#WEST PASCO N/A 49 38 66 SW3 29.88R  

 
 
WAZ029-210310-  
FOOTHILLS OF THE BLUES...WASHINGTON  
 
CITY SKY/WX TMP DP RH WIND PRES REMARKS
 
WALLA WALLA AP LGT RAIN 50 41 71 SW13 29.92R  
#CLYDE 6NW N/A 47 40 76 CALM 29.89R  
#DAYTON SCHOOL N/A 49 36 61 S10 29.92R  
#DELANEY DOT N/A 50 41 71 CALM 29.90R  
#LOWDEN 2SE N/A 52 42 69 CALM 29.88R  
#PLEASANT VIEW 1N/A 43 41 93 CALM 29.93R  
#PRESCOTT N/A 48 43 83 CALM 29.90R  
#WHITMAN COLLEGEN/A 52 41 66 SW3 29.90R  
#WAITSBURG 5S N/A 47 40 76 CALM 30.00R  
#WAITSBURG 6SSE N/A 47 38 71 E7 29.91R  
#WAITSBURG 8N N/A 44 N/A N/A S8 29.95R  
#WALLA WALLA 5E N/A 49 41 74 W6 N/A  
#WHITMAN MISSIONN/A 52 43 71 S5 29.93R  

 
 
WAZ030-210310-  
BLUE MOUNTAINS...WASHINGTON  
 
CITY SKY/WX TMP DP RH WIND PRES REMARKS
 
#DIXIE 5SE N/A 44 37 76 CALM 29.83R  

 
 
ORZ009-041-WAZ024-210310-  
COLUMBIA RIVER GORGE  
 
CITY SKY/WX TMP DP RH WIND PRES REMARKS
 
HOOD RIVER AP MOCLDY 48 43 83 NW12 29.94R WCI 43  
THE DALLES AP PTCLDY 50 42 74 W9 29.94R  
#ARLINGTON AIRPON/A 48 40 74 W5 29.98R  
#ARLINGTON HS N/A 50 39 66 CALM 29.85R  
#CELILO DOT N/A 51 36 56 W6 N/A  
#LYLE N/A 51 43 74 S10 29.96R  
#MARYHILL N/A 48 38 68 S10 N/A  
#MURDOCK N/A 51 44 77 W2 29.91R  
#RUFUS DOT N/A 53 N/A N/A S10 N/A  
#SMITHVILLE N/A 50 44 80 SW2 29.88R  
 

 
 
ORZ510-210310-  
NORTH CENTRAL OREGON  
 
CITY SKY/WX TMP DP RH WIND PRES REMARKS
 
#ANTELOPE N/A 45 37 73 S10 29.77S  
#CHENOWITH 1W N/A 43 41 93 MISG N/A  
#COW CYN RST AREN/A 44 N/A N/A SW3 N/A  
#DUFUR N/A 42 38 86 S3 29.90R  
#DUFUR 9E N/A 42 39 89 SW3 29.98R  
#GRASS VALLEY 1SN/A 40 37 89 CALM 29.93R  
#KENT DOT N/A 44 22 41 W6 N/A  
#MAUPIN SCHOOL N/A 51 35 54 S5 29.97R  
#MORO SCHOOL N/A 44 42 93 E5 29.92R  
#SHANIKO 5WSW N/A 42 -52 1 CALM N/A  
#SHANIKO 4NW N/A 42 35 76 MISG 29.90R  
#TYGH VALLEY 2NEN/A 49 33 54 S3 29.92R  
#WAPANITIA AIRPON/A 45 34 65 SW3 29.93F  
#WASCO DOT N/A 46 41 83 W6 N/A  
#WASCO 5NE N/A 45 36 70 S5 29.94R  

 
 
ORZ511-210310-  
CENTRAL OREGON  
 
CITY SKY/WX TMP DP RH WIND PRES REMARKS
 
BEND AIRPORT MOCLDY 50 45 83 S18 29.91R  
PRINEVILLE AP PTCLDY 45 39 79 SE3 29.93R  
REDMOND AIRPORT PTCLDY 47 41 79 E8 29.91R  
#ASHWOOD SCHOOL N/A 45 40 82 SW10 29.88R  
#BEND 1SW N/A 47 44 89 SW3 N/A  
#BEND-AWBREY N/A 49 45 86 SW3 29.91R  
#BEND-KIM LN N/A 49 43 80 MISG 29.83R  
#CULVER N/A 50 42 74 W2 29.74R  
#CULVER 8W N/A 51 41 68 SW3 29.93R  
#LAKE BILLY CHINN/A 52 N/A N/A W6 29.99R  
#MADRAS 4S N/A 51 12 21 CALM N/A  
#POWELL BUTTE N/A 49 43 80 N2 29.88R  
#PRINEVILLE N/A 44 40 86 S3 29.97R  
#PRINEVILLE 3N N/A 47 41 79 E5 29.88R  
#WARM SPRINGS N/A 50 40 68 W2 29.75R  
 

 
 
 
ORZ509-210310-  
EAST SLOPES OF OREGON CASCADES  
 
CITY SKY/WX TMP DP RH WIND PRES REMARKS
 
SISTERS AWOS N/A 54 45 71 W6 N/A  
#CAMP SHERMAN N/A 45 41 86 CALM 29.93R  
#LA PINE DOT N/A 46 44 93 CALM N/A  
#LA PINE 4NW N/A 45 42 89 S5 30.01R  
#LAVA BUTTE DOT N/A 45 43 93 W6 N/A  
#SISTERS ODOT N/A 52 42 69 CALM N/A  
#SISTERS 3N N/A 46 42 86 W2 29.94R  
#SUNRIVER N/A 44 43 96 S2 29.95R  
#TUMALO 3W N/A 46 42 86 S7 29.77R  
#WANOGA BUTTE D N/A 42 42 100 E5 N/A  
 

 
 
ORZ044-210310-  
LOWER COLUMBIA BASIN...OREGON  
 
CITY SKY/WX TMP DP RH WIND PRES REMARKS
 
HERMISTON CLOUDY 50 42 74 S12 29.92R  
#BOARDMAN SCHOOLN/A 51 42 71 S10 29.90R  
#BOARDMAN 8SW N/A 48 42 80 S7 29.96R  
#I-84 EX 198 DOTN/A 49 39 68 SW3 N/A  
#IONE SCHOOL N/A 46 28 49 CALM 29.98R  
#UMATILLA N/A 51 40 66 CALM 29.84R  

 
 
ORZ507-210310-  
NORTHERN FOOTHILLS OF THE BLUES  
 
CITY SKY/WX TMP DP RH WIND PRES REMARKS
 
PENDLETON AIRPT CLOUDY 48 38 68 SW14 29.93R WCI 42  
#ADAMS 3WNW N/A 45 40 82 CALM 29.92R  
#ATHENA N/A 47 40 76 S5 29.96R  
#CAYUSE N/A 49 41 74 SW10 29.92R  
#HELIX SCHOOL N/A 45 40 82 W6 29.93R  
#HELIX 3N N/A 43 39 86 W6 29.90R  
#HOLDMAN 5SE N/A 46 40 79 SW3 29.91R  
#HOLDMAN 6E N/A 45 41 86 SW3 29.73R  
#M-F GROVE ELEM N/A 50 39 66 SW10 29.90R  
#M-FREEWATER 5SEN/A 50 39 66 SW10 29.93R  
#PENDLETON DNTN N/A 51 37 59 SW10 29.89S  
#PDT AQUATIC CTRN/A 49 39 68 CALM 29.98S  
#PDT SUNRIDGE N/A 50 41 71 S10 29.94R  
#PENDLETON 6SE N/A 49 40 71 SW14 29.91R WCI 44  
#PENDLETON 7NW N/A 48 39 71 CALM 30.01F  
#PILOT ROCK 1S N/A 48 39 71 SW3 29.97R  
#PILOT ROCK N/A 47 42 83 CALM 29.98R  
#TUTUILLA N/A 48 41 77 CALM 29.98R  
#UMAPINE 2E N/A 51 43 74 MISG 29.89R  
#WESTON SCHOOL N/A 47 38 71 S2 29.88R  
 

 
 
ORZ508-210310-  
SOUTHERN FOOTHILLS OF THE BLUES  
 
CITY SKY/WX TMP DP RH WIND PRES REMARKS
 
LEXINGTON CLOUDY 46 39 76 CALM 29.98R  
#AJAX N/A 43 31 62 SW3 30.08R  
#CONDON 5W N/A 42 30 62 MISG 29.89R  
#HEPPNER EOC N/A 46 40 79 E5 29.86R  
#HEPPNER 4NE N/A 43 38 82 S7 29.91R  
#LEXINGTON 2SE N/A 48 40 74 CALM 29.91R  
#MIKKALO N/A 43 37 79 SW10 30.03R  
#OLEX 4N N/A 46 41 83 SW3 29.92R  
#RUGGS 5NE N/A 43 41 93 S10 30.11R  
#RUGGS 2SW N/A 44 39 82 S7 29.94R  
 

 
 
ORZ502-503-210310-  
BLUE MOUNTAINS  
 
CITY SKY/WX TMP DP RH WIND PRES REMARKS
 
MEACHAM CLOUDY 40 37 89 CALM 29.95R  
#BATTLE MTN DOT N/A 40 38 92 W6 N/A  
#GRANITE N/A 41 39 93 CALM 29.98R  
#GREENHORN 9SW N/A 47 44 89 CALM 29.90R  
#LADD CYN SMT N/A 42 41 96 W6 N/A  
#LADD CREEK ODOTN/A 43 41 93 W6 N/A  
#LONG CREEK HS N/A 47 47 100 W6 29.93R  
#N POWDER DOT N/A 43 42 96 E5 N/A  
#PIKES PEAK N/A 42 33 70 CALM 27.99S  
#TOLLGATE N/A 33 32 96 W2 29.78R  
#TROY SCHOOL N/A 46 42 86 S7 29.79R  
#UKIAH N/A 44 41 89 E5 29.84R  
#WESTON 4E N/A 40 38 92 CALM 29.92R  

 
 
ORZ505-210310-  
JOHN DAY BASIN  
 
CITY SKY/WX TMP DP RH WIND PRES REMARKS
 
JOHN DAY CLOUDY 56 43 62 SW9 29.92R  
#ANTELOPE 9ESE N/A 53 41 64 CALM N/A  
#DAYVILLE SCHOOLN/A 57 44 62 S12 29.87R  
#MITCHELL 8NW N/A 47 40 76 CALM 29.93R  
#MONUMENT HS N/A 51 47 86 W2 29.88R  
#MT. VERNON 5SE N/A 53 43 69 CALM 29.87R  
#WINLOCK N/A 48 41 77 CALM 29.89R  

 
 
ORZ506-210310-  
OCHOCO AND JOHN DAY HIGHLANDS  
 
CITY SKY/WX TMP DP RH WIND PRES REMARKS
 
#HORSE RIDGE DO N/A 51 42 71 S3 N/A  
#IZEE 6NW N/A 51 44 77 S1 N/A  
#PAULINA ODOT N/A 53 42 66 W2 N/A  
#PINE MTN OBS N/A 43 42 96 S5 N/A  
#PRAIRIE CITY N/A 53 42 66 S10 30.05R  
#SENECA N/A 48 N/A N/A W6 N/A  
#SENECA 9NW N/A 43 40 89 CALM 29.93R  

 
 
ORZ049-210310-  
GRANDE RONDE VALLEY  
 
CITY SKY/WX TMP DP RH WIND PRES REMARKS
 
LA GRANDE CLOUDY 46 43 89 W8 29.96R  
#COVE SCHOOL N/A 45 43 93 S3 29.96R  
#COVE 6NW N/A 45 43 93 S10 29.96R  
#ELGIN 3N N/A 43 37 79 S3 29.92R  
#ELGIN 1E N/A 44 39 82 SW10 N/A  
#IMBLER SCHOOL N/A 44 42 93 S12 29.93R WCI 38  
#ISLAND CITY 4N N/A 47 46 96 W5 29.97R  
#LADD CYN DOT N/A 46 44 93 W6 N/A  
#UNION 1S N/A 46 43 89 CALM 29.96R  

 
 
ORZ050-210310-  
WALLOWA COUNTY  
 
CITY SKY/WX TMP DP RH WIND PRES REMARKS
 
JOSEPH AIRPORT RAIN 43 41 93 E3 29.95R  
#ENTERPRISE HS N/A 43 40 89 S10 29.81R  
#IMNAHA SCHOOL N/A 48 43 83 CALM 29.93R  
#IMNAHA 10S N/A 42 40 93 CALM 29.93R  
#JOSEPH N/A 42 40 93 E1 30.37R  
#JOSEPH 3N N/A 42 38 86 SW3 29.91R  
#JOSEPH 3W N/A 40 40 100 CALM 30.37R  
#LOSTINE N/A 42 39 89 S10 29.78R  
#LOSTINE 3SE N/A 43 40 89 SW5 29.96R  
#MT HOWARD 8000 N/A 31 30 96 S7 29.91R  
#PROMISE 1S N/A 41 37 86 MISG 30.03R  
#WALLOWA SCHOOL N/A 44 39 82 S10 29.90R  
 

 
 
CLICK HERE TO GO TO PREVIOUS BULLETINS.

The Nexlab OR Page
The Nexlab WA Page Main Text Page